Station Historical Data
Daily Summary for September 28, 2017 Units:  Metric    English   Both
« Previous Day
Next Day »
Daily Weekly Monthly Yearly Custom
  High: Low: Average:
Temperature: 32.7 °C 18.4 °C 24.7 °C
Dew Point: 20.4 °C 17.1 °C 18.8 °C
Humidity: 92% 43% 72%
Wind Speed: 12.9km/h 1.6km/h 7.1km/h
Wind Gust: 12.9km/h - -
Wind- - WSW
Pressure: 1015.1 hPa 1012.4 hPa -
Precipitation: 0 mm    
Historical Graphs
 
 
Tabular Data for September 28, 2017
Time Temperature Dew Point Pressure Wind Wind Speed Wind Gust Humidity Rainfall Rate (Hourly) Conditions
00:00 22.8 °C 18.9 °C 1013.4 hPa NW 8 km/h 8 km/h 79% 0 mm CLR
00:05 22.7 °C 18.9 °C 1013.4 hPa NW 8 km/h 8 km/h 79% 0 mm CLR
00:10 22.7 °C 18.8 °C 1013.4 hPa NW 8 km/h 8 km/h 79% 0 mm CLR
00:15 22.6 °C 18.8 °C 1013.4 hPa NW 4.8 km/h 8 km/h 79% 0 mm CLR
00:20 22.6 °C 18.7 °C 1013.4 hPa NW 4.8 km/h 4.8 km/h 79% 0 mm CLR
00:25 22.5 °C 18.7 °C 1013.4 hPa NW 4.8 km/h 4.8 km/h 79% 0 mm CLR
00:30 22.4 °C 18.8 °C 1013.4 hPa NW 4.8 km/h 4.8 km/h 80% 0 mm CLR
00:40 22.3 °C 18.7 °C 1013.4 hPa NW 4.8 km/h 4.8 km/h 80% 0 mm CLR
00:45 22.3 °C 18.7 °C 1013.4 hPa NW 4.8 km/h 4.8 km/h 80% 0 mm CLR
00:50 22.2 °C 18.8 °C 1013.4 hPa NW 4.8 km/h 4.8 km/h 81% 0 mm CLR
00:55 22.2 °C 18.8 °C 1013.4 hPa NW 4.8 km/h 4.8 km/h 81% 0 mm CLR
01:00 22.2 °C 18.7 °C 1013.4 hPa NW 4.8 km/h 4.8 km/h 81% 0 mm CLR
01:05 22.1 °C 18.7 °C 1013.4 hPa NW 4.8 km/h 4.8 km/h 81% 0 mm CLR
01:15 22 °C 18.8 °C 1013.4 hPa NW 4.8 km/h 4.8 km/h 82% 0 mm CLR
01:20 21.9 °C 18.7 °C 1013.4 hPa NW 4.8 km/h 4.8 km/h 82% 0 mm CLR
01:25 21.9 °C 18.7 °C 1013.4 hPa WNW 4.8 km/h 4.8 km/h 82% 0 mm CLR
01:30 21.8 °C 18.6 °C 1013.1 hPa West 4.8 km/h 4.8 km/h 82% 0 mm CLR
01:40 21.8 °C 18.6 °C 1013.4 hPa West 4.8 km/h 4.8 km/h 82% 0 mm CLR
01:45 21.9 °C 18.7 °C 1013.1 hPa West 4.8 km/h 4.8 km/h 82% 0 mm CLR
01:50 21.9 °C 18.7 °C 1013.4 hPa West 4.8 km/h 4.8 km/h 82% 0 mm CLR
01:55 22 °C 18.8 °C 1013.1 hPa West 4.8 km/h 4.8 km/h 82% 0 mm CLR
02:00 21.9 °C 18.7 °C 1013.4 hPa West 4.8 km/h 4.8 km/h 82% 0 mm CLR
02:05 21.9 °C 18.7 °C 1013.1 hPa West 4.8 km/h 4.8 km/h 82% 0 mm CLR
02:10 21.8 °C 18.6 °C 1013.4 hPa West 4.8 km/h 4.8 km/h 82% 0 mm CLR
02:15 21.8 °C 18.8 °C 1013.4 hPa West 9.7 km/h 9.7 km/h 83% 0 mm CLR
02:20 21.7 °C 18.7 °C 1013.4 hPa West 9.7 km/h 9.7 km/h 83% 0 mm CLR
02:25 21.7 °C 18.7 °C 1013.4 hPa West 9.7 km/h 9.7 km/h 83% 0 mm CLR
02:30 21.7 °C 18.7 °C 1013.4 hPa West 9.7 km/h 9.7 km/h 83% 0 mm CLR
02:35 21.6 °C 18.6 °C 1013.4 hPa West 9.7 km/h 9.7 km/h 83% 0 mm CLR
02:40 21.6 °C 18.6 °C 1013.4 hPa West 9.7 km/h 9.7 km/h 83% 0 mm CLR
02:45 21.6 °C 18.6 °C 1013.4 hPa West 9.7 km/h 9.7 km/h 83% 0 mm CLR
02:50 21.5 °C 18.5 °C 1013.4 hPa West 9.7 km/h 9.7 km/h 83% 0 mm CLR
02:55 21.5 °C 18.7 °C 1013.4 hPa West 9.7 km/h 9.7 km/h 84% 0 mm CLR
03:00 21.4 °C 18.6 °C 1013.4 hPa West 9.7 km/h 9.7 km/h 84% 0 mm CLR
03:05 21.4 °C 18.6 °C 1013.4 hPa West 9.7 km/h 9.7 km/h 84% 0 mm CLR
03:10 21.4 °C 18.6 °C 1013.4 hPa West 9.7 km/h 9.7 km/h 84% 0 mm CLR
03:15 21.2 °C 18.3 °C 1013.4 hPa WSW 1.6 km/h 9.7 km/h 84% 0 mm CLR
03:20 20.9 °C 18.3 °C 1013.4 hPa WSW 1.6 km/h 1.6 km/h 85% 0 mm CLR
03:25 20.7 °C 18.3 °C 1013.4 hPa WSW 1.6 km/h 1.6 km/h 86% 0 mm CLR
03:30 20.6 °C 18.1 °C 1013.4 hPa WSW 1.6 km/h 1.6 km/h 86% 0 mm CLR
03:35 20.4 °C 18.2 °C 1013.1 hPa WSW 1.6 km/h 1.6 km/h 87% 0 mm CLR
03:40 20.3 °C 18.1 °C 1013.1 hPa WSW 1.6 km/h 1.6 km/h 87% 0 mm CLR
03:45 20.3 °C 18.2 °C 1013.4 hPa WSW 1.6 km/h 1.6 km/h 88% 0 mm CLR
03:50 20.2 °C 18.2 °C 1013.4 hPa WSW 1.6 km/h 1.6 km/h 88% 0 mm CLR
03:55 20.2 °C 18.1 °C 1013.1 hPa WSW 1.6 km/h 1.6 km/h 88% 0 mm CLR
04:00 20.1 °C 18 °C 1013.4 hPa WSW 1.6 km/h 1.6 km/h 88% 0 mm CLR
04:05 19.9 °C 17.9 °C 1013.1 hPa WSW 1.6 km/h 1.6 km/h 88% 0 mm CLR
04:10 19.9 °C 18 °C 1013.1 hPa WSW 1.6 km/h 1.6 km/h 89% 0 mm CLR
04:15 19.8 °C 17.9 °C 1013.1 hPa WSW 3.2 km/h 3.2 km/h 89% 0 mm CLR
04:20 19.8 °C 17.9 °C 1013.1 hPa West 3.2 km/h 3.2 km/h 89% 0 mm CLR
04:25 19.7 °C 17.8 °C 1013.1 hPa West 3.2 km/h 3.2 km/h 89% 0 mm CLR
04:30 19.7 °C 17.8 °C 1013.4 hPa West 3.2 km/h 3.2 km/h 89% 0 mm CLR
04:35 19.7 °C 17.8 °C 1013.1 hPa West 3.2 km/h 3.2 km/h 89% 0 mm CLR
04:40 19.6 °C 17.9 °C 1013.4 hPa West 3.2 km/h 3.2 km/h 90% 0 mm CLR
04:45 19.6 °C 17.9 °C 1013.1 hPa West 3.2 km/h 3.2 km/h 90% 0 mm CLR
04:50 19.5 °C 17.8 °C 1013.1 hPa West 3.2 km/h 3.2 km/h 90% 0 mm CLR
04:55 19.4 °C 17.8 °C 1013.1 hPa West 3.2 km/h 3.2 km/h 90% 0 mm CLR
05:00 19.4 °C 17.7 °C 1013.4 hPa West 3.2 km/h 3.2 km/h 90% 0 mm CLR
05:05 19.3 °C 17.7 °C 1013.4 hPa West 3.2 km/h 3.2 km/h 90% 0 mm CLR
05:10 19.3 °C 17.7 °C 1013.4 hPa West 3.2 km/h 3.2 km/h 90% 0 mm CLR
05:15 19.3 °C 17.6 °C 1013.4 hPa WSW 4.8 km/h 4.8 km/h 90% 0 mm CLR
05:20 19.3 °C 17.6 °C 1013.4 hPa WSW 4.8 km/h 4.8 km/h 90% 0 mm CLR
05:25 19.2 °C 17.7 °C 1013.4 hPa WSW 4.8 km/h 4.8 km/h 91% 0 mm CLR
05:30 19.2 °C 17.7 °C 1013.4 hPa WSW 4.8 km/h 4.8 km/h 91% 0 mm CLR
05:40 19.1 °C 17.6 °C 1013.4 hPa WSW 4.8 km/h 4.8 km/h 91% 0 mm CLR
05:45 19.1 °C 17.6 °C 1013.4 hPa WSW 4.8 km/h 4.8 km/h 91% 0 mm CLR
05:50 19.1 °C 17.6 °C 1013.4 hPa WSW 4.8 km/h 4.8 km/h 91% 0 mm CLR
05:55 19.1 °C 17.6 °C 1013.8 hPa WSW 4.8 km/h 4.8 km/h 91% 0 mm CLR
06:00 19.2 °C 17.9 °C 1013.8 hPa WSW 4.8 km/h 4.8 km/h 92% 0 mm CLR
06:05 19.4 °C 17.9 °C 1013.8 hPa WSW 4.8 km/h 4.8 km/h 91% 0 mm CLR
06:10 19.3 °C 17.7 °C 1013.8 hPa WSW 4.8 km/h 4.8 km/h 90% 0 mm CLR
06:15 19.2 °C 17.6 °C 1013.8 hPa West 8 km/h 8 km/h 90% 0 mm CLR
06:20 19.2 °C 17.4 °C 1013.8 hPa WNW 8 km/h 8 km/h 90% 0 mm CLR
06:25 19.1 °C 17.4 °C 1013.8 hPa WNW 8 km/h 8 km/h 90% 0 mm CLR
06:30 19 °C 17.5 °C 1013.8 hPa WNW 8 km/h 8 km/h 91% 0 mm CLR
06:35 18.9 °C 17.4 °C 1014.1 hPa WNW 8 km/h 8 km/h 91% 0 mm CLR
06:40 18.9 °C 17.4 °C 1013.8 hPa WNW 8 km/h 8 km/h 91% 0 mm CLR
06:45 18.9 °C 17.4 °C 1013.8 hPa WNW 8 km/h 8 km/h 91% 0 mm CLR
06:50 18.8 °C 17.3 °C 1013.8 hPa WNW 8 km/h 8 km/h 91% 0 mm CLR
06:55 18.8 °C 17.3 °C 1013.8 hPa WNW 8 km/h 8 km/h 91% 0 mm CLR
07:00 18.7 °C 17.2 °C 1013.8 hPa WNW 8 km/h 8 km/h 91% 0 mm CLR
07:05 18.7 °C 17.2 °C 1013.8 hPa WNW 8 km/h 8 km/h 91% 0 mm CLR
07:10 18.6 °C 17.1 °C 1013.8 hPa WNW 8 km/h 8 km/h 91% 0 mm CLR
07:15 18.6 °C 17.1 °C 1013.8 hPa WNW 8 km/h 8 km/h 91% 0 mm FEW
07:20 18.6 °C 17.1 °C 1014.1 hPa WNW 8 km/h 8 km/h 91% 0 mm FEW
07:25 18.6 °C 17.2 °C 1014.1 hPa WNW 8 km/h 8 km/h 92% 0 mm FEW
07:30 18.5 °C 17.2 °C 1014.1 hPa WNW 8 km/h 8 km/h 92% 0 mm FEW
07:40 18.5 °C 17.2 °C 1014.1 hPa WNW 8 km/h 8 km/h 92% 0 mm FEW
07:45 18.4 °C 17.1 °C 1014.1 hPa WNW 8 km/h 8 km/h 92% 0 mm FEW
07:50 18.4 °C 17.1 °C 1014.1 hPa WNW 8 km/h 8 km/h 92% 0 mm FEW
07:55 18.5 °C 17.2 °C 1014.1 hPa WNW 8 km/h 8 km/h 92% 0 mm FEW
08:00 18.6 °C 17.2 °C 1014.1 hPa WNW 8 km/h 8 km/h 92% 0 mm FEW
08:05 18.6 °C 17.2 °C 1014.1 hPa WNW 8 km/h 8 km/h 92% 0 mm FEW
08:15 18.7 °C 17.4 °C 1014.4 hPa WNW 3.2 km/h 8 km/h 92% 0 mm FEW
08:20 18.8 °C 17.4 °C 1014.4 hPa West 3.2 km/h 3.2 km/h 92% 0 mm FEW
08:25 18.9 °C 17.6 °C 1014.4 hPa West 3.2 km/h 3.2 km/h 92% 0 mm FEW
08:30 19.1 °C 17.7 °C 1014.4 hPa West 3.2 km/h 3.2 km/h 92% 0 mm FEW
08:35 19.2 °C 17.9 °C 1014.4 hPa West 3.2 km/h 3.2 km/h 92% 0 mm FEW
08:40 19.4 °C 18.1 °C 1014.4 hPa West 3.2 km/h 3.2 km/h 92% 0 mm FEW
08:45 19.6 °C 18.2 °C 1014.4 hPa West 3.2 km/h 3.2 km/h 92% 0 mm FEW
08:50 19.8 °C 18.3 °C 1014.4 hPa West 3.2 km/h 3.2 km/h 91% 0 mm FEW
08:55 19.9 °C 18.4 °C 1014.4 hPa West 3.2 km/h 3.2 km/h 91% 0 mm FEW
09:00 20.1 °C 18.6 °C 1014.4 hPa West 3.2 km/h 3.2 km/h 91% 0 mm FEW
09:05 20.3 °C 18.8 °C 1014.8 hPa West 3.2 km/h 3.2 km/h 91% 0 mm FEW
09:10 20.4 °C 18.8 °C 1014.8 hPa West 3.2 km/h 3.2 km/h 90% 0 mm FEW
09:15 20.6 °C 18.8 °C 1014.8 hPa West 3.2 km/h 3.2 km/h 89% 0 mm FEW
09:20 20.9 °C 18.6 °C 1014.8 hPa West 3.2 km/h 3.2 km/h 87% 0 mm FEW
09:25 21.2 °C 18.8 °C 1014.8 hPa West 3.2 km/h 3.2 km/h 86% 0 mm FEW
09:30 21.6 °C 18.8 °C 1014.8 hPa West 3.2 km/h 3.2 km/h 84% 0 mm FEW
09:35 21.9 °C 19.1 °C 1014.8 hPa West 3.2 km/h 3.2 km/h 84% 0 mm FEW
09:40 22.1 °C 19.3 °C 1014.8 hPa West 3.2 km/h 3.2 km/h 84% 0 mm FEW
09:45 22.4 °C 19.2 °C 1014.8 hPa West 3.2 km/h 3.2 km/h 82% 0 mm FEW
09:50 22.6 °C 19.4 °C 1014.8 hPa West 3.2 km/h 3.2 km/h 82% 0 mm FEW
10:00 23.1 °C 19.6 °C 1014.8 hPa West 3.2 km/h 3.2 km/h 81% 0 mm FEW
10:05 23.3 °C 19.5 °C 1015.1 hPa West 3.2 km/h 3.2 km/h 79% 0 mm FEW
10:10 23.7 °C 19.8 °C 1015.1 hPa West 3.2 km/h 3.2 km/h 79% 0 mm FEW
10:15 23.9 °C 19.8 °C 1014.8 hPa NNW 3.2 km/h 3.2 km/h 78% 0 mm FEW
10:20 24.2 °C 19.7 °C 1015.1 hPa North 3.2 km/h 3.2 km/h 76% 0 mm FEW
10:25 24.4 °C 19.9 °C 1015.1 hPa North 3.2 km/h 3.2 km/h 76% 0 mm FEW
10:35 25.1 °C 20.1 °C 1015.1 hPa North 3.2 km/h 3.2 km/h 74% 0 mm FEW
10:40 25.4 °C 19.9 °C 1015.1 hPa North 3.2 km/h 3.2 km/h 72% 0 mm FEW
10:45 25.8 °C 19.7 °C 1015.1 hPa North 3.2 km/h 3.2 km/h 69% 0 mm FEW
10:50 26.3 °C 19.9 °C 1015.1 hPa North 3.2 km/h 3.2 km/h 68% 0 mm FEW
10:55 26.8 °C 20.2 °C 1015.1 hPa North 3.2 km/h 3.2 km/h 67% 0 mm FEW
11:00 27.2 °C 20.1 °C 1015.1 hPa North 3.2 km/h 3.2 km/h 65% 0 mm FEW
11:05 27.4 °C 19.5 °C 1015.1 hPa North 3.2 km/h 3.2 km/h 62% 0 mm FEW
11:10 27.7 °C 19.8 °C 1015.1 hPa North 3.2 km/h 3.2 km/h 62% 0 mm FEW
11:15 27.8 °C 19.8 °C 1014.8 hPa NNE 8 km/h 8 km/h 62% 0 mm FEW
11:20 28.3 °C 19.2 °C 1014.8 hPa NNE 8 km/h 8 km/h 58% 0 mm FEW
11:25 28.6 °C 19.5 °C 1014.8 hPa NNE 8 km/h 8 km/h 58% 0 mm FEW
11:30 29 °C 19.9 °C 1014.8 hPa NNE 8 km/h 8 km/h 58% 0 mm FEW
11:40 29.8 °C 19.8 °C 1014.8 hPa NNE 8 km/h 8 km/h 55% 0 mm FEW
11:45 29.7 °C 19.7 °C 1014.8 hPa NNE 8 km/h 8 km/h 55% 0 mm FEW
11:50 29.4 °C 19.4 °C 1014.8 hPa NNE 8 km/h 8 km/h 55% 0 mm FEW
11:55 29.7 °C 18.8 °C 1014.4 hPa NNE 8 km/h 8 km/h 52% 0 mm FEW
12:00 30.4 °C 19.5 °C 1014.4 hPa NNE 8 km/h 8 km/h 52% 0 mm FEW
12:05 30.8 °C 20.1 °C 1014.4 hPa NNE 8 km/h 8 km/h 53% 0 mm FEW
12:10 30.9 °C 19.2 °C 1014.4 hPa NNE 8 km/h 8 km/h 50% 0 mm FEW
12:15 30.8 °C 19.8 °C 1014.4 hPa NNE 8 km/h 8 km/h 52% 0 mm FEW
12:20 31 °C 19.7 °C 1014.4 hPa NNE 8 km/h 8 km/h 51% 0 mm FEW
12:25 31.2 °C 19.8 °C 1014.4 hPa NNE 8 km/h 8 km/h 51% 0 mm FEW
12:30 31.2 °C 19.8 °C 1014.4 hPa NNE 8 km/h 8 km/h 51% 0 mm FEW
12:40 31.4 °C 19.4 °C 1014.4 hPa NNE 8 km/h 8 km/h 49% 0 mm FEW
12:45 31.6 °C 19.3 °C 1014.4 hPa NNE 8 km/h 8 km/h 48% 0 mm FEW
12:50 31.8 °C 19.1 °C 1014.1 hPa NNE 8 km/h 8 km/h 47% 0 mm FEW
12:55 31.9 °C 18.8 °C 1014.1 hPa NNE 8 km/h 8 km/h 46% 0 mm FEW
13:00 31.3 °C 19.3 °C 1014.1 hPa NNE 8 km/h 8 km/h 49% 0 mm FEW
13:05 31 °C 19.1 °C 1014.1 hPa NNE 8 km/h 8 km/h 49% 0 mm FEW
13:10 30.8 °C 18.8 °C 1014.1 hPa NNE 8 km/h 8 km/h 49% 0 mm FEW
13:15 30.6 °C 19.3 °C 1014.1 hPa NNE 8 km/h 8 km/h 51% 0 mm FEW
13:20 30.7 °C 19.3 °C 1014.1 hPa NNE 8 km/h 8 km/h 51% 0 mm FEW
13:25 30.6 °C 19 °C 1014.1 hPa NNE 8 km/h 8 km/h 50% 0 mm FEW
13:30 30.6 °C 18.6 °C 1013.8 hPa NNE 8 km/h 8 km/h 49% 0 mm FEW
13:35 30.4 °C 18.6 °C 1013.8 hPa NNE 8 km/h 8 km/h 49% 0 mm FEW
13:40 30.6 °C 19.2 °C 1013.8 hPa NNE 8 km/h 8 km/h 51% 0 mm FEW
13:45 30.5 °C 18.6 °C 1013.8 hPa NNE 8 km/h 8 km/h 49% 0 mm FEW
13:50 30.7 °C 18.7 °C 1013.8 hPa NNE 8 km/h 8 km/h 49% 0 mm FEW
13:55 30.9 °C 18.6 °C 1013.8 hPa North 3.2 km/h 8 km/h 48% 0 mm FEW
14:00 31.6 °C 19.2 °C 1013.4 hPa NNW 3.2 km/h 3.2 km/h 48% 0 mm FEW
14:05 32.2 °C 19.5 °C 1013.4 hPa NNW 3.2 km/h 3.2 km/h 47% 0 mm FEW
14:10 32.7 °C 18.5 °C 1013.4 hPa NNW 3.2 km/h 3.2 km/h 43% 0 mm FEW
14:15 32.3 °C 18.9 °C 1013.4 hPa NNE 9.7 km/h 9.7 km/h 45% 0 mm FEW
14:20 32.3 °C 18.4 °C 1013.4 hPa NNE 9.7 km/h 9.7 km/h 44% 0 mm FEW
14:25 32.1 °C 17.9 °C 1013.4 hPa NNE 9.7 km/h 9.7 km/h 43% 0 mm FEW
14:30 31.6 °C 18.2 °C 1013.1 hPa NNE 9.7 km/h 9.7 km/h 45% 0 mm FEW
14:35 31.1 °C 19.4 °C 1013.1 hPa NNE 9.7 km/h 9.7 km/h 50% 0 mm FEW
14:40 30.6 °C 19 °C 1013.1 hPa NNE 9.7 km/h 9.7 km/h 50% 0 mm FEW
14:45 30.1 °C 19.5 °C 1013.1 hPa NNE 9.7 km/h 9.7 km/h 53% 0 mm FEW
14:50 29.9 °C 19.6 °C 1013.1 hPa NNE 9.7 km/h 9.7 km/h 54% 0 mm FEW
14:55 30.2 °C 19.3 °C 1013.1 hPa NNE 9.7 km/h 9.7 km/h 52% 0 mm FEW
15:00 30.7 °C 20.1 °C 1013.1 hPa NNE 9.7 km/h 9.7 km/h 53% 0 mm FEW
15:05 31.1 °C 20.1 °C 1012.8 hPa NNE 9.7 km/h 9.7 km/h 52% 0 mm FEW
15:10 31.3 °C 18.9 °C 1012.8 hPa NNE 9.7 km/h 9.7 km/h 48% 0 mm FEW
15:15 31.2 °C 18.9 °C 1012.8 hPa NNE 9.7 km/h 9.7 km/h 48% 0 mm FEW
15:20 31.2 °C 19.2 °C 1012.8 hPa NNE 9.7 km/h 9.7 km/h 49% 0 mm FEW
15:25 31.2 °C 19.2 °C 1012.8 hPa NNE 9.7 km/h 9.7 km/h 49% 0 mm FEW
15:30 31.3 °C 20.2 °C 1012.8 hPa NNE 9.7 km/h 9.7 km/h 52% 0 mm FEW
15:40 30.9 °C 18.7 °C 1012.8 hPa NNE 9.7 km/h 9.7 km/h 48% 0 mm FEW
15:45 30.9 °C 18.6 °C 1012.8 hPa North 9.7 km/h 9.7 km/h 48% 0 mm SCT
15:50 30.8 °C 18.5 °C 1012.8 hPa NNW 9.7 km/h 9.7 km/h 48% 0 mm SCT
15:55 30.8 °C 18.5 °C 1012.8 hPa NNW 9.7 km/h 9.7 km/h 48% 0 mm SCT
16:00 30.8 °C 18.2 °C 1012.4 hPa NNW 9.7 km/h 9.7 km/h 47% 0 mm SCT
16:05 30.7 °C 18.4 °C 1012.4 hPa NNW 9.7 km/h 9.7 km/h 48% 0 mm SCT
16:10 30.6 °C 18.7 °C 1012.4 hPa NNW 9.7 km/h 9.7 km/h 49% 0 mm SCT
16:15 30.6 °C 18.9 °C 1012.4 hPa NNW 9.7 km/h 9.7 km/h 50% 0 mm SCT
16:20 30.5 °C 18.6 °C 1012.4 hPa NNW 9.7 km/h 9.7 km/h 49% 0 mm SCT
16:25 30.7 °C 18.7 °C 1012.4 hPa NW 4.8 km/h 9.7 km/h 49% 0 mm FEW
16:30 30.9 °C 19.3 °C 1012.4 hPa NW 4.8 km/h 4.8 km/h 50% 0 mm FEW
16:40 30.8 °C 18.6 °C 1012.4 hPa NW 4.8 km/h 4.8 km/h 48% 0 mm FEW
16:45 30.7 °C 17.8 °C 1012.4 hPa NW 4.8 km/h 4.8 km/h 46% 0 mm FEW
16:50 30.7 °C 17.8 °C 1012.4 hPa NW 4.8 km/h 4.8 km/h 46% 0 mm FEW
16:55 30.6 °C 18.7 °C 1012.8 hPa NW 4.8 km/h 4.8 km/h 49% 0 mm FEW
17:00 30.4 °C 19.1 °C 1012.8 hPa NW 4.8 km/h 4.8 km/h 51% 0 mm FEW
17:05 30.2 °C 19.6 °C 1012.4 hPa NW 4.8 km/h 4.8 km/h 53% 0 mm FEW
17:10 29.8 °C 19.8 °C 1012.4 hPa NW 4.8 km/h 4.8 km/h 55% 0 mm FEW
17:15 29.7 °C 19.9 °C 1012.4 hPa NW 4.8 km/h 4.8 km/h 56% 0 mm FEW
17:20 29.5 °C 20.4 °C 1012.4 hPa NW 4.8 km/h 4.8 km/h 58% 0 mm FEW
17:25 29.3 °C 20.4 °C 1012.4 hPa NW 4.8 km/h 4.8 km/h 59% 0 mm FEW
17:30 29.2 °C 19.8 °C 1012.4 hPa NW 4.8 km/h 4.8 km/h 57% 0 mm FEW
17:35 29.2 °C 19.8 °C 1012.4 hPa NW 4.8 km/h 4.8 km/h 57% 0 mm FEW
17:40 29.3 °C 20.2 °C 1012.8 hPa NW 4.8 km/h 4.8 km/h 58% 0 mm FEW
17:45 29.2 °C 20.1 °C 1012.8 hPa NW 4.8 km/h 4.8 km/h 58% 0 mm FEW
17:50 29.2 °C 20.3 °C 1012.8 hPa NW 4.8 km/h 4.8 km/h 59% 0 mm FEW
17:55 29.1 °C 19.4 °C 1012.8 hPa West 11.3 km/h 11.3 km/h 56% 0 mm FEW
18:00 29 °C 19.3 °C 1012.8 hPa West 11.3 km/h 11.3 km/h 56% 0 mm FEW
18:05 28.9 °C 18.9 °C 1012.8 hPa West 11.3 km/h 11.3 km/h 55% 0 mm FEW
18:10 28.8 °C 19.2 °C 1012.8 hPa West 11.3 km/h 11.3 km/h 56% 0 mm FEW
18:15 28.7 °C 19.1 °C 1012.8 hPa NW 11.3 km/h 11.3 km/h 56% 0 mm FEW
18:20 28.7 °C 19.6 °C 1012.8 hPa NNW 11.3 km/h 11.3 km/h 58% 0 mm FEW
18:25 28.7 °C 19.3 °C 1012.8 hPa NNW 11.3 km/h 11.3 km/h 57% 0 mm FEW
18:30 28.6 °C 19.3 °C 1012.8 hPa NNW 11.3 km/h 11.3 km/h 57% 0 mm FEW
18:35 28.5 °C 18.9 °C 1012.8 hPa NNW 11.3 km/h 11.3 km/h 56% 0 mm FEW
18:40 28.4 °C 19.4 °C 1012.8 hPa NNW 11.3 km/h 11.3 km/h 58% 0 mm FEW
18:45 28.3 °C 19 °C 1012.8 hPa NNW 11.3 km/h 11.3 km/h 57% 0 mm FEW
18:50 28.2 °C 19.2 °C 1012.8 hPa NNW 11.3 km/h 11.3 km/h 58% 0 mm FEW
18:55 28.1 °C 19.3 °C 1012.8 hPa NNW 11.3 km/h 11.3 km/h 59% 0 mm FEW
19:00 27.8 °C 19.4 °C 1012.8 hPa NNW 11.3 km/h 11.3 km/h 60% 0 mm FEW
19:05 27.7 °C 19.4 °C 1012.8 hPa NNW 11.3 km/h 11.3 km/h 61% 0 mm FEW
19:10 27.4 °C 19.5 °C 1012.8 hPa NNW 11.3 km/h 11.3 km/h 62% 0 mm FEW
19:15 27.1 °C 19.4 °C 1012.8 hPa NW 12.9 km/h 12.9 km/h 63% 0 mm FEW
19:20 26.7 °C 19.6 °C 1012.8 hPa NW 12.9 km/h 12.9 km/h 65% 0 mm FEW
19:25 26.4 °C 19.6 °C 1012.8 hPa NW 12.9 km/h 12.9 km/h 66% 0 mm FEW
19:30 26.2 °C 19.4 °C 1012.8 hPa NW 12.9 km/h 12.9 km/h 66% 0 mm FEW
19:35 26.1 °C 19.4 °C 1012.8 hPa NW 12.9 km/h 12.9 km/h 67% 0 mm FEW
19:40 25.9 °C 19.3 °C 1012.8 hPa NW 12.9 km/h 12.9 km/h 67% 0 mm FEW
19:45 25.8 °C 19.4 °C 1012.8 hPa NW 12.9 km/h 12.9 km/h 68% 0 mm FEW
19:50 25.6 °C 19.2 °C 1012.8 hPa NW 12.9 km/h 12.9 km/h 68% 0 mm FEW
19:55 25.4 °C 19.1 °C 1012.8 hPa NW 12.9 km/h 12.9 km/h 68% 0 mm FEW
20:00 25.3 °C 19.2 °C 1012.8 hPa NW 12.9 km/h 12.9 km/h 69% 0 mm FEW
20:05 25.2 °C 18.9 °C 1013.1 hPa NW 12.9 km/h 12.9 km/h 68% 0 mm FEW
20:10 25.1 °C 19 °C 1013.1 hPa NW 12.9 km/h 12.9 km/h 69% 0 mm FEW
20:15 25.1 °C 19.2 °C 1013.1 hPa NW 4.8 km/h 12.9 km/h 70% 0 mm FEW
20:20 24.9 °C 19.1 °C 1013.1 hPa WNW 4.8 km/h 4.8 km/h 70% 0 mm FEW
20:25 24.9 °C 19.1 °C 1013.1 hPa WNW 4.8 km/h 4.8 km/h 70% 0 mm FEW
20:30 24.8 °C 19.2 °C 1013.1 hPa WNW 4.8 km/h 4.8 km/h 71% 0 mm FEW
20:35 24.7 °C 19.1 °C 1013.1 hPa WNW 4.8 km/h 4.8 km/h 71% 0 mm FEW
20:40 24.6 °C 19.2 °C 1013.1 hPa WNW 4.8 km/h 4.8 km/h 72% 0 mm FEW
20:45 24.5 °C 19.1 °C 1013.4 hPa WNW 4.8 km/h 4.8 km/h 72% 0 mm FEW
20:50 24.4 °C 19.3 °C 1013.4 hPa WNW 4.8 km/h 4.8 km/h 73% 0 mm FEW
20:55 24.4 °C 19.2 °C 1013.4 hPa WNW 4.8 km/h 4.8 km/h 73% 0 mm FEW
21:00 24.3 °C 19.2 °C 1013.4 hPa WNW 4.8 km/h 4.8 km/h 73% 0 mm FEW
21:05 24.3 °C 19.1 °C 1013.4 hPa WNW 4.8 km/h 4.8 km/h 73% 0 mm FEW
21:10 24.2 °C 19.1 °C 1013.8 hPa WNW 4.8 km/h 4.8 km/h 73% 0 mm FEW
21:15 24.2 °C 19.3 °C 1013.8 hPa NW 11.3 km/h 11.3 km/h 74% 0 mm FEW
21:20 24.2 °C 19.2 °C 1013.8 hPa NW 11.3 km/h 11.3 km/h 74% 0 mm FEW
21:25 24.1 °C 19.1 °C 1013.8 hPa NW 11.3 km/h 11.3 km/h 74% 0 mm FEW
21:30 24 °C 19.3 °C 1013.8 hPa NW 11.3 km/h 11.3 km/h 75% 0 mm FEW
21:35 23.9 °C 19.2 °C 1013.8 hPa NW 11.3 km/h 11.3 km/h 75% 0 mm FEW
21:40 23.9 °C 19.2 °C 1014.1 hPa NW 11.3 km/h 11.3 km/h 75% 0 mm FEW
21:45 23.8 °C 19.3 °C 1014.1 hPa NW 11.3 km/h 11.3 km/h 76% 0 mm FEW
21:50 23.8 °C 19.3 °C 1014.1 hPa NW 11.3 km/h 11.3 km/h 76% 0 mm FEW
21:55 23.7 °C 19.2 °C 1014.1 hPa NW 11.3 km/h 11.3 km/h 76% 0 mm FEW
22:00 23.6 °C 19.3 °C 1014.1 hPa NW 11.3 km/h 11.3 km/h 77% 0 mm FEW
22:05 23.6 °C 19.3 °C 1014.1 hPa NW 11.3 km/h 11.3 km/h 77% 0 mm FEW
22:10 23.4 °C 19.2 °C 1014.1 hPa NW 11.3 km/h 11.3 km/h 77% 0 mm FEW
22:15 23.4 °C 19.3 °C 1014.1 hPa NW 11.3 km/h 11.3 km/h 78% 0 mm CLR
22:20 23.3 °C 19.3 °C 1014.1 hPa NW 11.3 km/h 11.3 km/h 78% 0 mm CLR
22:25 23.3 °C 19.3 °C 1014.1 hPa NW 11.3 km/h 11.3 km/h 78% 0 mm CLR
22:30 23.3 °C 19.2 °C 1014.1 hPa NW 11.3 km/h 11.3 km/h 78% 0 mm CLR
22:35 23.2 °C 19.2 °C 1014.4 hPa NW 11.3 km/h 11.3 km/h 78% 0 mm CLR
22:40 23.2 °C 19.4 °C 1014.4 hPa NW 11.3 km/h 11.3 km/h 79% 0 mm CLR
22:45 23.2 °C 19.3 °C 1014.4 hPa NW 11.3 km/h 11.3 km/h 79% 0 mm CLR
22:50 23.2 °C 19.3 °C 1014.4 hPa NW 11.3 km/h 11.3 km/h 79% 0 mm CLR
22:55 23.1 °C 19.2 °C 1014.4 hPa NW 11.3 km/h 11.3 km/h 79% 0 mm CLR
23:00 23 °C 19.2 °C 1014.4 hPa NW 11.3 km/h 11.3 km/h 79% 0 mm CLR
23:05 22.9 °C 19.3 °C 1014.4 hPa NW 11.3 km/h 11.3 km/h 80% 0 mm CLR
23:10 22.9 °C 19.3 °C 1014.4 hPa NW 11.3 km/h 11.3 km/h 80% 0 mm CLR
23:25 22.7 °C 19.3 °C 1014.4 hPa NW 9.7 km/h 9.7 km/h 81% 0 mm CLR
23:30 22.6 °C 19.2 °C 1014.4 hPa NW 9.7 km/h 9.7 km/h 81% 0 mm CLR
23:35 22.6 °C 19.2 °C 1014.4 hPa NW 9.7 km/h 9.7 km/h 81% 0 mm CLR
23:40 22.6 °C 19.1 °C 1014.4 hPa NW 9.7 km/h 9.7 km/h 81% 0 mm CLR
23:45 22.4 °C 19.2 °C 1014.4 hPa NW 9.7 km/h 9.7 km/h 82% 0 mm CLR
23:50 22.4 °C 19.2 °C 1014.4 hPa NW 9.7 km/h 9.7 km/h 82% 0 mm CLR
23:55 22.4 °C 19.2 °C 1014.4 hPa NW 9.7 km/h 9.7 km/h 82% 0 mm CLR
Piedmont Bend
Compliments of Weather Underground - 2 mb